Palestine, TX

10:54 AM CDT on June 27, 2017 (GMT -0500)
Palestine Municipal

Weather History for KPSN - November, 2012

Change the Weather History Date:

Wednesday, November 21, 2012

  Actual Average (KTYR) Record (KTYR)
Temperature  
Mean Temperature 62 °F -  
Max Temperature 78 °F 63 °F 81 °F (1956)
Min Temperature 46 °F 44 °F 19 °F (1901)
Degree Days  
Heating Degree Days 3    
Growing Degree Days 12 (Base 50)    
Moisture  
Dew Point 48 °F    
Average Humidity 70    
Maximum Humidity 98    
Minimum Humidity 26    
Precipitation  
Precipitation 0.00 in - - ()
Sea Level Pressure  
Sea Level Pressure 30.23 in    
Wind  
Wind Speed 1 mph (ESE)    
Max Wind Speed 6 mph    
Max Gust Speed -    
Visibility 8 miles    
Events Fog    
Averages and records for this station are not official NWS values.
T = Trace of Precipitation, MM = Missing Value Source: NWS Daily Summary

Daily Weather History Graph

Daily Weather History Graph

Search for Another Location

Airport or City:

Trip Planner

Search our weather history database for the weather conditions in past years. The results will help you decide how hot, cold, wet, or windy it might be!

Date:

Astronomy

Nov. 21, 2012 Rise Set
Actual Time 6:56 AM CST 5:20 PM CST
Civil Twilight 6:30 AM CST 5:46 PM CST
Nautical Twilight 6:00 AM CST 6:16 PM CST
Astronomical Twilight 5:31 AM CST 6:45 PM CST
Moon 1:17 PM CST (11/21) 12:39 AM CST (11/21)
Length of Visible Light 11h 16m
Length of Day
10h 23m
First Quarter, 62% of the Moon is Illuminated
Nov 21
First Quarter
Nov 28
Full
Dec 6
Last Quarter
Dec 13
New
Dec 19
First Quarter

Hourly Weather History & Observations

Time (CST) Temp. Dew Point Humidity Pressure Visibility Wind Dir Wind Speed Gust Speed Precip Events Conditions
12:15 AM 53.1 °F 51.3 °F 94% 30.22 in 5.0 mi Calm Calm - N/A   Clear
12:35 AM 52.9 °F 50.9 °F 93% 30.21 in 7.0 mi Calm Calm - N/A   Clear
12:55 AM 51.1 °F 49.5 °F 94% 30.21 in 7.0 mi Calm Calm - N/A   Clear
1:15 AM 51.4 °F 49.8 °F 94% 30.21 in 10.0 mi Calm Calm - N/A   Clear
1:35 AM 50.4 °F 48.7 °F 94% 30.21 in 7.0 mi Calm Calm - N/A   Clear
1:55 AM 50.9 °F 49.3 °F 94% 30.21 in 7.0 mi Calm Calm - N/A   Clear
2:15 AM 50.0 °F 48.4 °F 94% 30.21 in 7.0 mi Calm Calm - N/A   Clear
2:35 AM 50.5 °F 49.1 °F 95% 30.21 in 7.0 mi Calm Calm - N/A   Clear
2:55 AM 49.1 °F 47.5 °F 94% 30.22 in 10.0 mi Calm Calm - N/A   Clear
3:15 AM 50.0 °F 48.4 °F 94% 30.22 in 7.0 mi Calm Calm - N/A   Clear
3:35 AM 50.4 °F 49.1 °F 95% 30.22 in 0.8 mi Calm Calm - N/A   Mist
3:55 AM 50.2 °F 48.7 °F 95% 30.23 in 4.0 mi Calm Calm - N/A   Clear
4:15 AM 48.6 °F 47.1 °F 95% 30.23 in 2.0 mi Calm Calm - N/A   Clear
4:35 AM 46.8 °F 45.7 °F 96% 30.23 in 0.8 mi Calm Calm - N/A   Mostly Cloudy
4:55 AM 46.6 °F 45.5 °F 96% 30.23 in 0.2 mi ENE 3.5 mph - N/A Fog Fog
5:15 AM 47.3 °F 46.4 °F 97% 30.24 in 0.5 mi Calm Calm - N/A Fog Fog
5:35 AM 48.9 °F 48.2 °F 97% 30.24 in 0.5 mi Calm Calm - N/A Fog Fog
5:55 AM 46.8 °F 45.9 °F 97% 30.25 in 0.8 mi Calm Calm - N/A   Mist
6:15 AM 46.2 °F 45.5 °F 97% 30.25 in 4.0 mi Calm Calm - N/A   Clear
6:35 AM 47.5 °F 46.8 °F 97% 30.26 in 1.0 mi Calm Calm - N/A   Mist
6:55 AM 46.6 °F 45.9 °F 97% 30.27 in 5.0 mi Calm Calm - N/A   Clear
7:15 AM 48.2 °F 47.5 °F 97% 30.27 in 0.2 mi Calm Calm - N/A Fog Fog
7:35 AM 47.5 °F 46.8 °F 97% 30.28 in 1.0 mi Calm Calm - N/A   Mist
7:55 AM 51.3 °F 50.5 °F 97% 30.28 in 2.0 mi Calm Calm - N/A   Clear
8:15 AM 55.2 °F 54.7 °F 98% 30.28 in 4.0 mi Calm Calm - N/A   Clear
8:35 AM 58.5 °F 57.7 °F 97% 30.29 in 7.0 mi Calm Calm - N/A   Clear
8:55 AM 60.8 °F 59.9 °F 97% 30.29 in 10.0 mi Calm Calm - N/A   Clear
9:15 AM 64.4 °F 57.9 °F 79% 30.29 in 10.0 mi Calm Calm - N/A   Clear
9:35 AM 67.5 °F 56.7 °F 68% 30.30 in 10.0 mi North 4.6 mph - N/A   Clear
10:15 AM 70.7 °F 57.7 °F 63% 30.30 in 10.0 mi ENE 5.8 mph - N/A   Clear
10:35 AM 70.3 °F 57.0 °F 63% 30.30 in 10.0 mi NNE 4.6 mph - N/A   Clear
10:55 AM 71.8 °F 56.3 °F 58% 30.30 in 10.0 mi Calm Calm - N/A   Clear
11:15 AM 72.3 °F 55.0 °F 54% 30.29 in 10.0 mi Calm Calm - N/A   Clear
11:35 AM 74.5 °F 52.2 °F 46% 30.28 in 10.0 mi NNE 3.5 mph - N/A   Clear
11:55 AM 74.3 °F 50.4 °F 43% 30.27 in 10.0 mi Calm Calm - N/A   Clear
12:15 PM 75.7 °F 50.7 °F 41% 30.26 in 10.0 mi ESE 5.8 mph - N/A   Clear
12:35 PM 76.3 °F 50.0 °F 40% 30.25 in 10.0 mi SSE 4.6 mph - N/A   Clear
12:55 PM 77.0 °F 46.9 °F 34% 30.24 in 10.0 mi SE 5.8 mph - N/A   Clear
1:15 PM 77.9 °F 46.9 °F 33% 30.23 in 10.0 mi East 3.5 mph - N/A   Clear
1:35 PM 77.9 °F 40.3 °F 26% 30.22 in 10.0 mi East 3.5 mph - N/A   Clear
1:55 PM 78.4 °F 41.7 °F 27% 30.21 in 10.0 mi Calm Calm - N/A   Clear
2:15 PM 77.5 °F 43.5 °F 30% 30.20 in 10.0 mi Calm Calm - N/A   Clear
2:35 PM 78.1 °F 43.9 °F 30% 30.20 in 10.0 mi Calm Calm - N/A   Clear
2:55 PM 77.9 °F 41.9 °F 28% 30.19 in 10.0 mi Calm Calm - N/A   Clear
3:15 PM 77.2 °F 43.0 °F 30% 30.19 in 10.0 mi ESE 4.6 mph - N/A   Clear
3:35 PM 76.1 °F 42.1 °F 30% 30.19 in 10.0 mi SSE 4.6 mph - N/A   Clear
3:55 PM 75.7 °F 41.9 °F 30% 30.19 in 10.0 mi Calm Calm - N/A   Clear
4:15 PM 75.2 °F 41.7 °F 30% 30.19 in 10.0 mi South 3.5 mph - N/A   Clear
4:35 PM 74.8 °F 41.4 °F 30% 30.19 in 10.0 mi Calm Calm - N/A   Clear
4:55 PM 73.9 °F 41.4 °F 31% 30.18 in 10.0 mi Calm Calm - N/A   Clear
5:15 PM 68.9 °F 47.1 °F 46% 30.18 in 10.0 mi Calm Calm - N/A   Clear
5:35 PM 66.2 °F 49.1 °F 54% 30.19 in 10.0 mi Calm Calm - N/A   Clear
5:55 PM 63.7 °F 48.9 °F 59% 30.19 in 10.0 mi Calm Calm - N/A   Clear
6:15 PM 60.8 °F 49.8 °F 67% 30.19 in 10.0 mi Calm Calm - N/A   Clear
6:35 PM 58.8 °F 48.4 °F 68% 30.19 in 10.0 mi Calm Calm - N/A   Clear
6:55 PM 57.2 °F 48.6 °F 73% 30.20 in 10.0 mi Calm Calm - N/A   Clear
7:15 PM 58.3 °F 48.0 °F 69% 30.20 in 10.0 mi Calm Calm - N/A   Clear
7:35 PM 54.7 °F 47.5 °F 77% 30.20 in 10.0 mi Calm Calm - N/A   Clear
7:55 PM 56.1 °F 47.5 °F 73% 30.20 in 10.0 mi Calm Calm - N/A   Clear
8:15 PM 54.0 °F 47.5 °F 79% 30.20 in 10.0 mi Calm Calm - N/A   Clear
8:35 PM 52.5 °F 46.0 °F 79% 30.20 in 10.0 mi Calm Calm - N/A   Clear
8:55 PM 52.3 °F 46.6 °F 81% 30.21 in 10.0 mi Calm Calm - N/A   Clear
9:15 PM 52.9 °F 45.7 °F 77% 30.21 in 10.0 mi ESE 3.5 mph - N/A   Clear
9:35 PM 53.1 °F 45.5 °F 75% 30.21 in 10.0 mi ESE 4.6 mph - N/A   Clear
9:55 PM 57.0 °F 43.9 °F 61% 30.21 in 10.0 mi ESE 3.5 mph - N/A   Clear
10:15 PM 59.0 °F 44.6 °F 59% 30.20 in 10.0 mi ESE 3.5 mph - N/A   Clear
10:35 PM 59.0 °F 46.6 °F 63% 30.20 in 10.0 mi ESE 4.6 mph - N/A   Clear
10:55 PM 59.5 °F 47.3 °F 64% 30.19 in 10.0 mi ESE 4.6 mph - N/A   Clear
11:15 PM 59.5 °F 47.5 °F 64% 30.19 in 10.0 mi ESE 5.8 mph - N/A   Clear
11:35 PM 59.7 °F 48.2 °F 66% 30.18 in 10.0 mi ESE 4.6 mph - N/A   Clear
11:55 PM 59.2 °F 48.2 °F 67% 30.18 in 10.0 mi ESE 4.6 mph - N/A   Clear